Погода в Найроби

Кения     1°16′21″S   36°49′40″E
темп.,
°C
ветер,
м/с
пор.,
м/с
влажн.,
%
обл.,
%
осадки,
мм/ч
давл.,
гПа
погр.,
м
8 мая, сб
сб800:00+16св2693100 0.9 1016321
03:00+15св139499 1.0 1015216
06:00+16с1194100 0.2 101629
09:00+19в118053 0.5 1016379
12:00+23вюв225863 0.7 10131280
15:00+22ююв1260100 1.8 10101089
18:00+18в2587100 1.7 1013236
21:00+16всв3793100 2.8 1015283
9 мая, вс
вс900:00+16св2396100 2.9 1016209
03:00+15ссв2495100 4.8 1015320
06:00+15ссз0196100 3.1 1016143
09:00+17зюз1287100 4.6 1017205
12:00+19з2378100 2.4 1015427
15:00+20з117197 4.5 1012725
18:00+18ююв0187100 2.4 101339
21:00+16сз119287 4.4 101618
10 мая, пн
пн1000:00+15ссв119378 0.6 101712
03:00+14сз119486 1.0 101512
06:00+14зсз119364 0.1 101716
09:00+18зюз2276100 0.1 1017498
12:00+22зюз226167 0.9 10131186
15:00+20ююз127689 5.3 1012510
18:00+17всв1394100 9.1 1013127
21:00+15зсз61295100 48.3 1017551
11 мая, вт
вт1100:00+15зсз2596100 3.2 1018227
03:00+14зсз1497100 6.5 1017200
06:00+14ссз1296100 2.8 1018117
09:00+16с0191100 3.1 1019213
12:00+21юз346498 0.0 10161186
15:00+20зюз4465100 0.6 10141024
18:00+17зюз3581100 0.2 1015452
21:00+16з1496100 2.4 1018236
12 мая, ср
ср1200:00+15зсз0196100 3.8 101981
03:00+15св1198100 5.2 1017146
06:00+15ю0197100 0.2 101872
09:00+16св019198 0.7 1019393
12:00+19ююз128097 1.6 1017732
15:00+18ююз228385 5.9 1014554
18:00+17ююв1192100 3.9 101583
21:00+16ююв1394100 6.8 1018120